Date String (YYYY-MM-DD hh:mm:ss) UTC,Instrument flags,Ambient pressure (hPa),Sample flow (lpm),Bypass flow (lpm),Sample temperature (°C),Ambient temperature (°C),ASC tube jacket temperature (°C),LED temperature (°C),Box temperature (°C),Sample RH (%),Span deviation,Mass concentration (μg/m³),Mass concentration (μg/m³),Mass concentration (μg/m³)
DateTimeUTC,F1_M11,P_M11,Q1_M11,Q2_M11,T1_M11,T2_M11,T3_M11,T4_M11,T5_M11,U1_M11,ZSPAN_M11,X0_M11,X2_M11,X1_M11
2022-06-18 04:00:00,,0824.1,4.99,0.00,29.3,28.0,00.0,38.1,31.2,22.7,0003.1,0016.84,0011.11,0009.69
2022-06-18 04:01:00,,0824.1,4.99,0.00,29.3,28.1,00.0,38.1,31.2,22.7,0002.8,0016.93,0011.12,0009.68
2022-06-18 04:02:00,,0824.0,5.00,0.00,29.3,28.2,00.0,38.1,31.3,22.6,0002.7,0016.92,0011.12,0009.67
2022-06-18 04:03:00,,0824.0,5.01,0.00,29.3,28.3,00.0,38.1,31.3,22.6,0002.7,0016.71,0011.11,0009.67
2022-06-18 04:04:00,,0824.0,5.01,0.00,29.4,28.4,00.0,38.1,31.3,22.5,0002.2,0016.04,0011.12,0009.68
2022-06-18 04:05:00,,0824.0,4.99,0.00,29.4,28.4,00.0,38.1,31.4,22.5,0002.2,0016.23,0011.20,0009.69
2022-06-18 04:06:00,,0824.0,5.00,0.00,29.4,28.5,00.0,38.2,31.4,22.4,0002.3,0016.30,0011.25,0009.70
2022-06-18 04:07:00,,0824.0,5.00,0.00,29.5,28.6,00.0,38.2,31.4,22.4,0002.1,0016.27,0011.25,0009.71
2022-06-18 04:08:00,,0824.0,5.01,0.00,29.5,28.2,00.0,38.2,31.4,22.4,0002.1,0016.30,0011.27,0009.72
2022-06-18 04:09:00,,0824.0,4.99,0.00,29.4,27.3,00.0,38.1,31.2,22.4,0002.0,0016.41,0011.31,0009.74
2022-06-18 04:10:00,,0824.0,5.01,0.00,29.3,26.8,00.0,38.0,31.0,22.5,0002.3,0016.69,0011.33,0009.77
2022-06-18 04:11:00,,0823.9,5.00,0.00,29.2,26.8,00.0,38.0,30.9,22.6,0002.0,0016.96,0011.37,0009.80
2022-06-18 04:12:00,,0824.0,5.00,0.00,29.2,26.8,00.0,38.0,30.9,22.7,0002.0,0017.04,0011.41,0009.80
2022-06-18 04:13:00,,0824.0,5.00,0.00,29.1,27.0,00.0,38.0,30.9,22.8,0002.3,0017.27,0011.43,0009.81
2022-06-18 04:14:00,,0824.0,5.00,0.00,29.1,27.2,00.0,38.0,30.9,22.8,0002.6,0017.41,0011.41,0009.81
2022-06-18 04:15:00,,0824.0,5.01,0.00,29.1,27.4,00.0,38.0,31.0,22.9,0003.0,0017.36,0011.39,0009.82
2022-06-18 04:16:00,,0823.9,5.00,0.00,29.1,27.5,00.0,38.0,31.0,22.9,0003.3,0017.39,0011.41,0009.84
2022-06-18 04:17:00,,0824.0,4.99,0.00,29.1,27.7,00.0,38.0,31.0,22.9,0003.6,0017.44,0011.41,0009.85
2022-06-18 04:18:00,,0824.0,5.00,0.00,29.1,27.8,00.0,38.0,31.1,22.9,0003.7,0017.54,0011.41,0009.84
2022-06-18 04:19:00,,0823.9,5.00,0.00,29.2,28.0,00.0,38.0,31.1,22.9,0003.8,0018.09,0011.40,0009.82
2022-06-18 04:20:00,,0824.0,4.99,0.00,29.2,28.1,00.0,38.0,31.2,22.8,0003.5,0017.95,0011.35,0009.78
2022-06-18 04:21:00,,0824.0,5.01,0.00,29.2,28.2,00.0,38.0,31.2,22.8,0003.1,0018.68,0011.33,0009.76
2022-06-18 04:22:00,,0823.9,5.01,0.00,29.3,28.3,00.0,38.0,31.2,22.8,0003.4,0018.73,0011.31,0009.74
2022-06-18 04:23:00,,0824.0,4.99,0.00,29.3,28.4,00.0,38.0,31.3,22.7,0003.5,0018.82,0011.32,0009.74
2022-06-18 04:24:00,,0824.0,5.00,0.00,29.3,28.4,00.0,38.1,31.3,22.6,0003.3,0018.55,0011.29,0009.74
2022-06-18 04:25:00,,0824.0,5.00,0.00,29.4,28.5,00.0,38.1,31.4,22.5,0003.1,0018.45,0011.31,0009.73
2022-06-18 04:26:00,,0824.0,5.00,0.00,29.4,28.6,00.0,38.1,31.4,22.4,0002.9,0018.50,0011.29,0009.71
2022-06-18 04:27:00,,0824.0,5.00,0.00,29.4,28.6,00.0,38.1,31.4,22.3,0002.8,0018.28,0011.21,0009.69
2022-06-18 04:28:00,,0824.0,4.99,0.00,29.5,28.5,00.0,38.1,31.4,22.2,0002.4,0018.15,0011.19,0009.68
2022-06-18 04:29:00,,0823.9,5.00,0.00,29.4,27.7,00.0,38.1,31.2,22.3,0002.5,0018.10,0011.22,0009.68
2022-06-18 04:30:00,,0823.9,5.00,0.00,29.4,27.3,00.0,38.1,31.1,22.4,0002.7,0017.49,0011.23,0009.71
2022-06-18 04:31:00,,0824.0,5.00,0.00,29.3,27.3,00.0,38.1,31.1,22.5,0003.0,0017.33,0011.21,0009.75
2022-06-18 04:32:00,,0823.9,4.99,0.00,29.3,27.4,00.0,38.1,31.1,22.6,0003.0,0016.29,0011.15,0009.76
2022-06-18 04:33:00,,0823.9,4.99,0.00,29.3,27.5,00.0,38.1,31.1,22.6,0002.9,0015.73,0011.11,0009.75
2022-06-18 04:34:00,,0823.8,5.01,0.00,29.3,27.7,00.0,38.1,31.1,22.7,0003.3,0015.67,0011.09,0009.75
2022-06-18 04:35:00,,0823.8,5.00,0.00,29.3,27.8,00.0,38.1,31.2,22.8,0003.4,0015.67,0011.07,0009.75
2022-06-18 04:36:00,,0823.8,5.00,0.00,29.3,27.9,00.0,38.1,31.2,22.8,0003.7,0015.54,0011.03,0009.76
2022-06-18 04:37:00,,0823.8,5.00,0.00,29.3,28.1,00.0,38.1,31.2,22.7,0003.5,0015.45,0011.03,0009.77
2022-06-18 04:38:00,,0823.8,5.00,0.00,29.3,28.2,00.0,38.1,31.3,22.7,0003.5,0015.48,0011.03,0009.78
2022-06-18 04:39:00,,0823.8,5.00,0.00,29.3,28.3,00.0,38.1,31.3,22.7,0003.4,0015.41,0011.03,0009.80
2022-06-18 04:40:00,,0823.7,5.00,0.00,29.4,28.4,00.0,38.1,31.3,22.6,0003.3,0015.47,0011.04,0009.82
2022-06-18 04:41:00,,0823.7,5.00,0.00,29.4,28.4,00.0,38.2,31.4,22.6,0002.9,0015.56,0011.07,0009.84
2022-06-18 04:42:00,,0823.7,5.00,0.00,29.4,28.5,00.0,38.2,31.4,22.5,0002.5,0015.83,0011.16,0009.85
2022-06-18 04:43:00,,0823.7,4.99,0.00,29.5,28.6,00.0,38.2,31.4,22.4,0002.5,0015.96,0011.20,0009.86
2022-06-18 04:44:00,,0823.7,5.01,0.00,29.5,28.6,00.0,38.2,31.5,22.4,0002.9,0015.86,0011.21,0009.87
2022-06-18 04:45:00,,0823.7,5.00,0.00,29.5,28.1,00.0,38.2,31.4,22.3,0002.6,0015.62,0011.21,0009.88
2022-06-18 04:46:00,,0823.7,5.00,0.00,29.4,27.4,00.0,38.1,31.2,22.3,0002.5,0015.61,0011.20,0009.87
2022-06-18 04:47:00,,0823.7,5.01,0.00,29.4,27.3,00.0,38.1,31.1,22.4,0002.2,0015.51,0011.16,0009.85
2022-06-18 04:48:00,,0823.6,4.99,0.00,29.3,27.3,00.0,38.1,31.1,22.5,0002.3,0015.91,0011.12,0009.82
2022-06-18 04:49:00,,0823.7,5.00,0.00,29.3,27.4,00.0,38.1,31.1,22.9,0002.3,0015.93,0011.16,0009.83
2022-06-18 04:50:00,,0823.6,5.01,0.00,29.3,27.6,00.0,38.1,31.1,23.2,0002.6,0016.36,0011.26,0009.90
2022-06-18 04:51:00,,0823.7,5.02,0.00,29.3,27.7,00.0,38.1,31.2,23.3,0002.5,0016.57,0011.33,0009.94
2022-06-18 04:52:00,,0823.7,5.01,0.00,29.3,27.9,00.0,38.1,31.2,23.3,0002.5,0016.51,0011.36,0009.99
2022-06-18 04:53:00,,0823.6,4.99,0.00,29.3,28.0,00.0,38.1,31.2,23.4,0002.1,0016.37,0011.32,0010.01
2022-06-18 04:54:00,,0823.6,4.99,0.00,29.3,28.1,00.0,38.1,31.3,23.5,0002.5,0016.29,0011.32,0010.05
2022-06-18 04:55:00,,0823.7,5.00,0.00,29.4,28.2,00.0,38.1,31.3,23.5,0002.3,0016.39,0011.36,0010.09
2022-06-18 04:56:00,,0823.6,5.00,0.00,29.4,28.3,00.0,38.2,31.3,23.6,0002.3,0016.27,0011.30,0010.12
2022-06-18 04:57:00,,0823.6,5.00,0.00,29.4,28.4,00.0,38.2,31.4,23.6,0002.6,0016.46,0011.39,0010.16
2022-06-18 04:58:00,,0823.7,5.00,0.00,29.4,28.5,00.0,38.2,31.4,23.5,0002.6,0016.83,0011.54,0010.23
2022-06-18 04:59:00,,0823.7,5.01,0.00,29.5,28.5,00.0,38.2,31.4,23.6,0002.6,0016.75,0011.67,0010.28
